Кейла

Эстония     59°18′42″N   24°23′35″E
темп.,
°C
ветер,
м/с
пор.,
м/с
влажн.,
%
обл.,
%
осадки,
мм/ч
давл.,
гПа
погр.,
м
23 апреля, пт
пт2300:00+2ююв25905 0.0 1004117
03:00+1ю249617 0.0 1003110
06:00+1ююв2497100 0.0 1002364
09:00+3ююв1291100 0.4 1003352
12:00+3зюз1194100 0.9 1003323
15:00+4сз347979 1.4 1005761
18:00+4зсз587982 0.3 1007948
21:00+1зсз5983100 0.4 1008744
24 апреля, сб
сб2400:00+1з51088100 0.1 1007978
03:00+1з4996100 0.5 1005638
06:000зсз2899100 0.6 1006481
09:00+1сз4996100 1.5 1007621
12:00+3зсз5778100 0.6 10071081
15:00+3зсз4578100 0.9 1008935
18:00+5сз457275 0.3 1008981
21:00+3сз498492 0.5 1008431
25 апреля, вс
вс2500:00+2сз499196 0.1 1009620
03:00+1сз3897100 0.4 1009453
06:00+1сз2698100 0.9 1008234
09:00+2ссз4689100 1.3 1009609
12:00+4ссз4681100 0.7 10091100
15:00+3сз4997100 1.4 1009564
18:00+2сз41096100 1.3 1009630
21:00+2сз4989100 1.5 1009661
26 апреля, пн
пн2600:00+1сз3897100 0.4 1008526
03:00+1зсз3798100 0.8 1007322
06:00+1зсз2599100 0.8 1006207
09:00+3с3998100 1.4 1006813
12:00+4ссв4996100 0.9 1008804
15:00+4с4697100 0.6 1007725
18:00+3с4798100 0.8 1008756
21:00+3с4898100 1.3 1008711
27 апреля, вт
вт2700:00+3с3798100 0.1 1008641
03:00+3с3798100 0.1 1008595
06:00+3с379699 0.1 1009542
09:00+4с468695 0.3 1009746
12:00+5с3576100 0.4 10101040
15:00+5сз3477100 0.9 10091026
18:00+4сз458197 0.3 1009764
21:00+2зсз3694100 0.4 1009354